This demonstration page uses our WeatherBlox Daily Observations layout. Learn more.

Left ArrowRight Arrow

39.01783, -85.05884

Hourly Observations for July 21, 2020

Temp ( °F °C ) Dew Point ( °F °C ) Humidity (%) Winds ( mph kmh ) Pressure ( in mb ) Visibility ( mi km ) Precip ( " mm )
12:52 am 00:52 Partly Cloudy 76 24.4 71 21.7 85 85 Calm 29.99 1016 10 16 0.00 0.00
1:52 am 01:52 Mostly Clear 75 23.9 70 21.1 84 84 SW 5 7 29.99 1016 10 16 0.00 0.00
2:52 am 02:52 Mostly Clear 74 23.3 70 21.1 88 88 SSW 5 7 29.98 1015 10 16 0.00 0.00
3:52 am 03:52 Mostly Clear 73 22.8 70 21.1 90 90 Calm 29.97 1015 8 13 0.00 0.00
3:58 am 03:58 Partly Cloudy 73 22.8 70 21.1 90 90 Calm 29.98 1015 7 11 0.00 0.00
4:03 am 04:03 Cloudy 73 22.8 70 21.1 90 90 Calm 29.97 1015 7 11 0.00 0.00
4:52 am 04:52 Cloudy with Mist and Fog 74 23.3 71 21.7 91 91 W 7 11 29.98 1015 6 10 0.00 0.00
5:27 am 05:27 Cloudy 73 22.8 69 20.6 87 87 NW 8 13 29.99 1016 10 16 0.00 0.00
5:52 am 05:52 Mostly Cloudy 73 22.8 67 19.4 81 81 N 9 15 29.99 1016 10 16 0.00 0.00
6:00 am 06:00 Partly Cloudy 73 22.8 66 18.9 79 79 N 9 15 30.00 1016 10 16 0.00 0.00
6:52 am 06:52 Mostly Cloudy 73 22.8 65 18.3 76 76 NNW 6 9 30.01 1016 10 16 0.00 0.00
7:52 am 07:52 Mostly Sunny 74 23.3 65 18.3 74 74 NE 8 13 30.01 1016 10 16 0.00 0.00
8:52 am 08:52 Mostly Sunny 76 24.4 66 18.9 72 72 Calm 30.04 1017 10 16 0.00 0.00
9:52 am 09:52 Partly Cloudy 79 26.1 67 19.4 67 67 S 3 6 30.04 1017 10 16 0.00 0.00
10:52 am 10:52 Partly Cloudy 81 27.2 68 20 65 65 VRB 3 6 30.05 1018 10 16 0.00 0.00
11:52 am 11:52 Mostly Cloudy 85 29.4 70 21.1 61 61 WSW 7 11 30.04 1017 10 16 0.00 0.00
12:52 pm 12:52 Mostly Cloudy 85 29.4 70 21.1 61 61 Calm 30.04 1017 10 16 0.00 0.00
1:52 pm 13:52 Mostly Cloudy 88 31.1 70 21.1 55 55 VRB 7 11 30.03 1017 10 16 0.00 0.00
2:52 pm 14:52 Mostly Cloudy 89 31.7 71 21.7 55 55 SSW 12 19 30.01 1016 10 16 0.00 0.00
3:52 pm 15:52 Mostly Cloudy 88 31.1 71 21.7 57 57 VRB 7 11 30.00 1016 10 16 0.00 0.00
5:52 pm 17:52 Mostly Cloudy 89 31.7 69 20.6 52 52 WSW 7 11 29.96 1015 10 16 0.00 0.00
6:52 pm 18:52 Mostly Cloudy 87 30.6 70 21.1 57 57 WSW 6 9 29.96 1015 10 16 0.00 0.00
7:52 pm 19:52 Mostly Cloudy 86 30 71 21.7 61 61 W 6 9 29.97 1015 10 16 0.00 0.00
8:52 pm 20:52 Cloudy 82 27.8 72 22.2 72 72 W 7 11 29.98 1015 10 16 0.00 0.00
9:52 pm 21:52 Mostly Cloudy 80 26.7 71 21.7 74 74 Calm 29.98 1015 10 16 0.00 0.00
10:52 pm 22:52 Cloudy 78 25.6 69 20.6 74 74 S 3 6 29.98 1015 10 16 0.00 0.00
11:52 pm 23:52 Cloudy 78 25.6 66 18.9 67 67 S 6 9 29.98 1015 10 16 0.00 0.00

Powered by AerisWeather